This demonstration page uses our WeatherBlox Daily Observations layout. Learn more.

Left ArrowRight Arrow

Hourly Observations for June 10, 2019

Temp ( °F °C ) Dew Point ( °F °C ) Humidity (%) Winds ( mph kmh ) Pressure ( in mb ) Visibility ( mi km ) Precip ( " mm )
12:51 am 00:51 Clear 78 25.6 17 -8.3 10 10 NE 8 13 29.87 1012 10 16 0.00 0.00
1:51 am 01:51 Clear 81 27.2 14 -10 8 8 E 7 11 29.86 1011 10 16 0.00 0.00
2:51 am 02:51 Clear 75 23.9 17 -8.3 11 11 E 7 11 29.90 1013 10 16 0.00 0.00
3:51 am 03:51 Clear 82 27.8 44 6.7 26 26 E 10 17 29.93 1013 10 16 0.00 0.00
4:51 am 04:51 Clear 81 27.2 48 8.9 32 32 ESE 13 20 29.96 1014 10 16 0.00 0.00
5:51 am 05:51 Sunny 80 26.7 48 8.9 33 33 SE 10 17 29.99 1016 10 16 0.00 0.00
6:51 am 06:51 Sunny 79 26.1 51 10.6 38 38 SE 18 30 30.02 1017 10 16 0.00 0.00
7:51 am 07:51 Sunny 78 25.6 52 11.1 40 40 SE 17 28 30.07 1018 10 16 0.00 0.00
8:51 am 08:51 Sunny 79 26.1 51 10.6 38 38 SE 16 26 30.10 1019 10 16 0.00 0.00
9:51 am 09:51 Sunny 81 27.2 51 10.6 35 35 SE 17 28 30.11 1020 10 16 0.00 0.00
10:51 am 10:51 Sunny 80 26.7 51 10.6 37 37 SE 14 22 30.14 1021 10 16 0.00 0.00
11:51 am 11:51 Sunny 79 26.1 52 11.1 39 39 SSE 17 28 30.14 1021 10 16 0.00 0.00
12:51 pm 12:51 Sunny 78 25.6 53 11.7 42 42 ESE 18 30 30.13 1020 10 16 0.00 0.00
1:51 pm 13:51 Sunny 81 27.2 54 12.2 39 39 SE 22 35 30.11 1020 10 16 0.00 0.00
2:51 pm 14:51 Sunny 82 27.8 53 11.7 37 37 SE 18 30 30.10 1019 10 16 0.00 0.00
3:51 pm 15:51 Sunny 81 27.2 53 11.7 38 38 ESE 12 19 30.06 1018 10 16 0.00 0.00
4:51 pm 16:51 Sunny 83 28.3 53 11.7 36 36 SSE 12 19 30.04 1017 10 16 0.00 0.00
5:51 pm 17:51 Sunny 83 28.3 52 11.1 34 34 SE 15 24 30.03 1017 10 16 0.00 0.00
6:51 pm 18:51 Sunny 79 26.1 54 12.2 42 42 S 18 30 30.06 1018 10 16 0.00 0.00
7:51 pm 19:51 Clear 76 24.4 55 12.8 48 48 SSE 14 22 30.08 1019 10 16 0.00 0.00
8:51 pm 20:51 Clear 74 23.3 54 12.2 50 50 SE 15 24 30.11 1020 10 16 0.00 0.00
9:51 pm 21:51 Clear 72 22.2 56 13.3 57 57 SE 9 15 30.14 1021 10 16 0.00 0.00
10:51 pm 22:51 Clear 70 21.1 55 12.8 59 59 SE 7 11 30.14 1021 10 16 0.00 0.00
11:51 pm 23:51 Clear 67 19.4 55 12.8 66 66 SE 5 7 30.13 1020 10 16 0.00 0.00

Powered by AerisWeather